Location: Doverdale
(52.2833°N, 2.2000°W)
Time: 11:53:57
(UTC+00:00)

Cosmos 1400 Rocket - Pass Details

Date: 29 October 2020
Orbit: 521 x 568 km, 81.2° (Epoch: 24 November)

Event Time Altitude Azimuth Distance (km) Brightness Sun altitude
Rises 18:43:35 0° 209° (SSW) 2,752 6.8 -18.7°
Reaches altitude 10° 18:45:51 10° 216° (SW) 1,855 5.9 -19.0°
Maximum altitude 18:49:46 43° 289° (WNW) 797 4.1 -19.6°
Drops below altitude 10° 18:53:40 10° 2° (N) 1,847 5.5 -20.2°
Sets 18:55:56 0° 9° (N) 2,738 6.3 -20.5°
